Theta_e
318 318 316 314 312 310 310 311 302 314 307 304 297 299 301 304 305 306 307 303 301 300 301 303 302 304 306 313 308 296 298 292 290 296 301 301 300 293 290 291 289 286 287 292
318 318 316 314 311 310 309 311 309 314 307 300 300 302 304 307 306 305 306 306 305 305 302 299 303 305 311 311 309 304 301 293 291 294 297 301 302 301 294 288 287 286 288 292
319 318 315 313 312 311 311 308 303 308 306 302 300 300 301 302 309 306 307 305 306 303 301 301 300 303 309 310 310 320 307 293 293 292 294 298 300 305 303 292 292 289 289 295
319 318 316 314 312 311 309 306 303 305 302 304 301 299 301 302 302 306 305 304 305 302 298 299 299 301 304 307 313 307 300 296 296 294 300 303 305 308 309 303 303 294 296 303
319 318 317 314 312 311 311 305 304 306 304 303 301 300 300 302 304 304 303 302 305 304 297 298 297 299 301 300 305 302 301 297 297 294 302 303 304 307 310 310 311 308 308 303
320 319 317 315 312 311 307 308 307 307 302 302 301 301 302 305 305 305 309 307 302 302 305 307 307 304 302 301 302 300 298 295 294 291 298 299 297 304 308 309 311 310 304 311
320 319 318 317 314 310 308 307 306 301 298 304 304 306 305 306 305 302 307 308 304 308 310 304 301 300 300 300 302 300 296 295 293 292 292 288 297 311 312 310 313 313 313 314
320 320 319 318 315 313 310 309 306 303 296 304 305 305 303 303 302 302 305 307 310 308 303 299 295 295 298 298 304 298 296 297 294 293 289 295 302 307 307 304 306 314 312 316
320 320 319 318 316 313 308 308 308 306 300 298 307 303 303 299 298 301 304 309 308 305 299 297 290 290 293 295 302 301 300 297 296 292 290 290 298 311 315 313 300 315 315 315
320 320 320 319 318 314 307 308 308 306 300 303 303 301 300 303 301 298 300 305 305 304 295 293 292 293 298 297 296 297 296 296 294 294 293 297 306 312 313 298 299 313 317 317
319 320 319 319 318 316 307 305 309 307 301 302 307 308 305 304 302 298 300 299 302 301 298 297 296 297 300 298 299 297 296 295 293 294 292 293 313 311 303 305 311 316 317 318
319 319 319 318 317 316 311 303 307 309 304 304 308 310 312 310 309 304 300 301 300 303 299 298 298 297 299 297 295 301 297 299 298 298 298 305 311 310 313 315 313 314 316 318
319 319 319 318 317 316 311 302 303 305 302 304 303 306 308 311 312 311 303 301 305 303 305 301 299 296 299 295 298 299 302 305 301 302 303 308 311 313 315 318 318 319 320 319
318 318 319 318 317 315 313 304 303 305 303 298 303 312 309 312 310 311 309 307 305 305 304 300 299 298 301 297 299 300 302 305 301 301 305 307 311 313 315 318 321 321 322 322
318 318 318 318 317 314 308 303 304 307 305 298 300 306 308 309 309 310 309 307 305 303 301 300 299 300 301 299 300 298 306 304 301 301 306 308 310 315 321 320 320 320 321 320
317 318 317 317 315 312 306 305 309 307 309 301 296 303 305 309 309 308 306 306 304 304 303 301 301 303 303 297 295 302 305 308 307 307 312 312 315 317 320 320 320 322 322 323
316 316 316 315 313 306 306 305 309 307 307 302 297 297 304 308 307 307 307 307 306 306 303 302 303 304 304 298 296 304 306 310 311 312 313 311 313 313 316 319 322 323 324 324
315 315 315 314 312 309 305 308 309 308 304 303 295 296 301 306 303 303 305 304 304 304 304 303 302 302 301 298 303 305 309 311 309 311 314 313 314 314 323 324 325 325 326 328
315 315 314 309 306 304 306 315 312 309 305 298 296 293 295 305 301 302 305 304 300 304 301 301 302 298 298 303 304 305 308 308 309 312 314 314 312 313 321 324 323 324 324 326
314 310 306 303 306 315 315 307 303 307 307 304 299 298 296 300 299 300 301 301 299 298 301 304 299 299 304 306 306 307 308 309 312 312 310 313 316 319 320 321 323 323 323 328
308 304 304 310 318 307 303 301 302 303 301 303 302 298 296 302 298 297 300 298 299 296 299 301 298 298 305 310 314 314 309 311 312 314 316 319 320 318 318 319 318 318 319 322
308 309 312 311 306 302 300 299 302 301 297 298 297 298 299 300 302 299 300 297 298 294 302 300 297 301 309 312 314 314 309 311 314 319 319 320 320 319 317 315 315 315 317 320
311 307 306 303 303 292 295 293 297 299 299 300 300 299 300 299 301 299 299 298 296 301 297 296 300 308 312 312 314 314 312 316 320 319 320 319 319 318 315 314 315 316 316 317
303 302 294 296 295 297 295 294 297 300 301 301 301 300 300 300 299 298 296 299 300 295 294 296 306 308 310 313 314 315 317 318 318 317 317 317 316 316 316 316 316 316 315 315
300 300 292 296 297 297 299 301 300 301 302 301 301 303 302 299 298 298 298 296 296 297 296 305 306 307 309 313 315 314 315 314 315 316 316 316 318 316 315 316 315 315 316 315
301 300 296 294 294 295 297 298 299 301 303 306 306 302 303 302 300 297 297 297 296 298 302 304 305 305 309 315 317 319 320 318 318 317 318 318 318 315 315 315 315 315 316 315
298 296 296 296 297 297 299 301 301 302 305 303 304 302 300 304 299 298 299 297 300 302 303 304 305 309 310 310 314 317 318 318 319 318 319 318 317 316 315 315 316 316 316 316
Wind_Speed
25 26 27 28 28 25 3 3 5 4 3 6 2 3 4 6 6 6 7 5 4 4 6 6 4 4 3 9 3 4 1 6 1 1 6 3 4 4 4 6 3 1 4 9
25 27 28 27 26 17 3 4 0 3 3 5 5 7 5 5 10 7 6 7 6 5 5 4 4 5 6 7 7 2 3 2 3 7 7 4 6 3 4 5 3 3 5 9
25 27 29 29 27 15 2 4 4 6 6 2 2 5 6 6 5 5 5 4 4 6 8 6 4 8 5 8 6 8 5 4 6 8 6 3 3 4 1 5 4 2 6 10
24 26 29 32 29 18 2 5 0 2 3 5 4 2 4 6 7 6 9 6 6 2 4 5 4 2 7 5 8 7 6 4 2 1 1 4 3 2 4 2 5 6 3 6
21 24 27 31 34 20 7 4 3 4 1 3 4 6 5 5 7 5 5 3 4 3 3 1 4 1 1 4 6 5 5 0 2 1 5 1 3 1 5 2 1 3 5 3
19 21 24 27 31 17 5 3 2 3 4 3 3 2 3 4 5 1 3 2 1 1 2 4 10 8 4 4 3 1 2 4 3 3 3 4 3 3 2 2 0 3 0 1
17 18 20 22 24 14 2 1 2 4 2 2 1 4 3 4 3 3 4 3 2 4 6 4 1 3 3 2 3 5 5 5 2 3 3 3 5 3 3 4 3 1 3 4
15 16 17 19 20 20 4 2 3 3 1 1 2 5 2 5 5 2 3 3 1 4 5 4 6 6 1 3 4 2 2 5 3 4 4 4 3 1 2 1 4 5 4 2
12 13 14 16 17 18 3 2 0 3 3 4 1 2 2 2 3 7 3 5 5 5 4 4 2 0 1 4 6 4 5 5 5 2 4 7 3 1 2 2 6 5 3 3
10 12 13 14 15 15 3 2 3 3 1 4 3 2 2 2 1 2 4 7 8 4 3 4 2 2 2 1 2 4 5 4 4 1 1 4 3 3 2 3 6 1 3 6
8 8 10 12 14 15 5 1 4 3 1 6 5 3 4 1 2 2 4 4 4 4 5 3 1 1 1 2 2 1 2 3 1 2 2 4 3 1 4 4 2 1 3 4
9 7 7 8 10 12 7 2 2 1 3 6 3 6 5 4 6 5 1 3 2 3 4 1 1 1 1 2 2 1 1 5 4 7 6 3 3 4 3 3 3 2 3 4
8 8 7 6 7 8 5 1 3 2 3 5 4 4 1 2 7 4 4 3 3 1 3 4 1 1 3 1 4 1 1 3 1 3 3 5 5 5 5 2 4 4 3 5
8 7 7 7 6 6 4 1 1 2 2 1 7 2 4 1 4 6 4 4 3 5 3 2 2 2 3 3 3 3 4 4 3 5 8 7 6 6 5 2 3 4 4 4
9 8 6 6 7 7 2 1 1 1 3 3 7 9 3 6 3 7 5 5 3 2 2 2 3 2 2 0 1 4 6 7 5 6 4 2 5 5 2 3 4 6 3 6
10 9 7 5 4 6 1 3 1 1 2 2 5 4 5 5 3 5 6 5 3 3 4 3 3 4 3 1 3 7 4 4 6 3 3 5 8 7 4 4 5 6 5 5
10 9 8 5 2 2 2 3 2 2 1 3 6 7 5 4 3 2 3 2 2 3 3 2 3 2 4 2 5 7 6 8 6 6 2 5 3 4 7 4 5 3 3 3
10 10 8 5 2 3 3 2 7 5 3 2 2 6 5 4 2 1 1 3 2 1 2 1 2 1 1 5 10 5 8 9 4 8 9 7 2 6 6 1 3 6 6 5
10 9 7 2 1 2 3 4 11 1 3 3 3 3 4 5 2 1 2 2 1 1 2 3 4 1 6 10 7 6 7 7 7 5 7 5 6 6 6 3 6 6 7 6
9 4 3 3 4 5 10 2 2 1 1 1 4 2 4 2 2 1 2 2 2 1 4 3 2 5 8 6 7 8 7 6 6 4 2 5 3 4 2 4 4 2 3 4
3 4 4 2 8 3 1 3 3 3 4 5 4 7 3 1 2 2 1 2 1 0 4 4 2 5 4 7 10 8 8 7 6 2 2 3 6 6 5 3 3 5 5 4
3 2 2 3 3 2 4 5 3 5 6 4 5 6 5 3 2 2 2 3 2 5 2 2 3 5 6 9 9 7 7 8 5 6 7 7 7 6 6 4 4 4 3 4
2 3 4 4 3 4 8 10 6 5 5 5 4 4 4 1 1 1 2 3 5 1 1 4 4 4 7 8 6 5 2 5 7 7 7 8 7 6 5 4 3 4 6 6
3 5 6 7 7 7 8 5 5 5 3 5 4 3 4 3 4 3 4 4 2 2 3 4 2 3 7 7 5 6 6 9 8 8 8 7 6 5 4 4 2 3 5 6
4 4 6 8 3 1 2 3 1 2 3 2 2 2 4 2 3 3 2 2 5 5 5 3 2 3 4 5 6 9 8 6 6 4 5 6 3 3 3 3 3 3 3 5
5 5 2 1 3 2 1 2 2 2 2 2 1 4 4 5 4 4 7 4 5 4 3 3 1 1 1 4 5 6 7 5 4 3 2 1 1 2 3 5 3 3 4 5
5 3 1 2 2 2 2 3 3 1 3 4 3 5 6 3 3 4 5 5 3 4 2 2 3 2 3 3 4 3 5 5 2 2 2 2 3 3 3 6 4 5 5 5
Wind_Direction
342 342 344 344 344 341 58 80 47 318 346 42 54 26 332 310 336 357 37 87 53 48 28 39 61 14 256 342 291 116 271 126 197 118 316 303 68 94 109 110 259 108 144 277
346 346 346 350 350 356 349 74 245 317 64 62 341 323 346 32 17 21 25 25 34 36 46 77 34 322 292 4 25 89 179 11 60 356 347 353 56 19 100 106 79 192 133 260
349 350 349 351 352 349 32 75 43 335 44 53 88 8 352 3 354 52 51 28 64 48 26 11 9 349 321 345 359 39 87 104 147 182 200 173 63 3 55 114 101 205 226 298
353 354 353 351 355 353 65 28 65 185 356 352 23 52 1 353 13 12 22 19 42 79 38 5 356 329 322 341 350 21 70 78 28 348 177 114 134 77 358 111 161 168 216 289
355 357 358 358 354 349 74 87 53 1 86 301 21 5 357 20 331 29 348 57 323 22 103 92 288 332 320 262 344 37 1 78 61 342 298 308 119 174 105 16 279 235 288 279
356 0 2 4 4 2 69 343 8 104 313 359 74 329 321 1 335 339 96 310 359 23 302 258 235 220 260 262 318 120 64 129 89 205 0 355 349 251 126 124 31 275 27 322
353 359 5 7 11 26 81 353 81 59 321 56 56 343 326 336 340 262 305 19 43 281 329 260 129 76 283 261 311 204 155 109 79 183 78 217 258 351 106 130 205 252 293 317
350 355 3 7 10 12 64 356 67 82 27 260 320 338 324 325 316 319 281 307 244 324 10 34 13 351 4 29 20 66 132 119 103 150 174 279 296 224 20 84 266 184 235 320
346 353 360 5 6 9 73 45 61 89 106 256 279 304 328 308 324 339 297 316 317 36 72 63 95 266 291 320 354 89 69 73 112 127 148 196 253 51 66 164 301 164 195 256
337 349 356 1 4 6 47 3 28 81 56 263 173 206 220 132 95 247 310 332 348 27 49 70 100 290 267 3 358 337 0 7 102 90 157 291 244 267 197 134 241 226 209 223
321 335 349 357 2 2 24 280 2 86 243 274 207 245 187 136 103 128 280 25 347 20 60 99 245 141 290 2 280 205 154 117 190 79 90 266 193 163 181 227 328 316 305 262
302 317 336 350 357 359 10 2 2 346 164 253 263 254 267 228 192 145 334 184 214 198 84 35 121 340 12 148 282 350 319 177 190 174 219 247 272 247 269 173 228 318 322 330
281 298 313 338 350 2 32 280 304 23 22 299 344 240 234 116 202 182 142 273 200 172 169 154 160 260 127 198 245 278 255 155 188 24 283 251 261 253 245 233 231 265 277 294
256 267 294 311 328 346 18 336 288 87 111 9 283 355 287 268 206 189 179 146 70 101 69 99 130 209 161 221 231 181 202 135 178 268 283 289 273 250 270 246 216 271 293 247
247 250 257 290 313 328 343 204 250 235 112 246 280 311 271 282 238 203 163 144 118 110 66 93 228 231 139 261 30 246 181 188 164 225 248 214 270 328 273 185 198 217 317 301
229 235 246 259 302 343 21 9 322 317 155 65 318 299 296 311 266 184 179 152 127 124 152 203 252 261 131 196 242 258 228 196 168 219 226 213 262 266 249 277 259 256 255 261
218 222 227 234 243 97 169 202 197 128 96 72 310 316 292 302 322 71 101 91 149 135 164 196 203 276 131 175 235 237 237 223 211 219 214 290 234 280 315 272 277 251 241 265
208 208 208 197 230 303 318 256 226 146 83 82 262 271 328 9 343 74 13 111 57 325 177 85 179 12 67 259 245 260 251 271 241 205 199 222 286 324 332 276 33 36 16 353
206 188 152 124 166 206 227 87 134 146 141 186 178 225 254 353 353 279 33 75 100 328 192 239 114 213 228 229 247 256 236 201 219 144 193 206 230 268 286 38 46 44 357 352
204 140 196 191 208 165 127 42 58 324 246 144 234 171 257 86 7 353 82 31 161 199 245 111 154 251 267 272 245 251 262 222 173 121 141 196 201 184 155 66 66 63 348 338
222 181 217 96 132 90 95 149 194 169 232 204 222 192 214 253 133 223 185 170 154 159 260 146 237 271 267 301 296 255 218 197 226 237 50 151 137 144 120 108 56 33 16 356
240 191 141 113 151 117 157 195 181 206 231 207 175 198 190 260 116 126 225 158 90 241 159 142 250 256 287 316 314 315 195 186 214 194 165 137 123 121 105 72 41 23 358 12
231 225 160 152 167 153 190 192 196 201 202 188 178 177 163 97 128 160 129 153 227 75 169 223 225 287 313 314 321 3 132 142 124 113 112 115 103 95 86 82 28 15 27 2
233 199 189 194 184 215 189 188 169 216 154 153 167 130 161 171 144 163 151 227 97 234 220 220 242 294 307 328 9 43 50 92 92 80 78 78 96 121 112 83 35 28 24 346
245 206 223 203 224 228 179 181 114 220 169 138 100 58 127 152 149 191 107 161 240 216 214 187 231 293 302 20 48 59 49 52 63 78 97 108 104 66 39 29 10 20 349 347
262 227 228 147 122 212 170 155 217 219 187 131 139 159 168 187 158 140 204 182 223 215 189 198 182 303 4 77 76 81 67 34 62 71 50 43 64 8 317 317 332 341 327 325
249 252 341 156 122 167 157 149 186 160 147 189 162 192 190 119 151 197 173 205 232 157 146 188 207 160 123 73 53 77 148 161 254 30 324 284 306 327 319 309 300 312 302 285